FW9836 Weather Reports


Display with metric or nautical units.
time (UTC)temp
F
wind
direction
speed
MPH
gust
MPH
rain 1hr
in
rain 24hr
in
rain mn
in
humidity
%
barometer
mb
20260508090325 38 337 0.0 0.0 0.00 0.00 0.00 74 1007.5
20260508084422 39 337 0.0 3.0 0.00 0.00 0.00 72 1007.2
20260508083424 37 337 1.0 2.0 0.00 0.00 0.00 76 1007.4
20260508082424 37 337 0.0 1.0 0.00 0.00 0.00 76 1007.4
20260508081425 37 337 0.0 0.0 0.00 0.00 0.00 75 1007.5
20260508075525 39 337 0.0 0.0 0.00 0.00 0.00 72 1007.2
20260508074523 39 180 0.0 2.0 0.00 0.00 0.00 72 1007.1
20260508073525 39 320 0.0 0.0 0.00 0.00 0.00 70 1007.1
20260508072623 39 337 1.0 4.0 0.00 0.01 0.00 72 1007.1
20260508070623 37 337 0.0 0.0 0.00 0.01 0.00 76 1007.1
20260508065624 38 337 0.0 0.0 0.00 0.01 0.00 74 1007.2
20260508064625 39 337 0.0 0.0 0.00 0.01 0.00 72 1007.1
20260508063625 39 337 0.0 0.0 0.00 0.02 0.00 71 1007.2
20260508062624 39 180 0.0 0.0 0.00 0.02 0.00 70 1007.2
20260508061626 39 337 0.0 2.0 0.00 0.02 0.00 69 1007.2
20260508055724 39 180 0.0 2.0 0.00 0.16 0.00 69 1007.5
20260508054822 39 180 0.0 0.0 0.00 0.25 0.00 71 1007.5
20260508053824 40 337 0.0 2.0 0.00 0.26 0.00 69 1007.5
20260508052824 41 180 0.0 0.0 0.00 0.26 0.00 68 1007.5
20260508051923 40 180 0.0 1.0 0.00 0.26 0.00 70 1007.6
20260508050922 40 67 0.0 0.0 0.00 0.26 0.00 70 1007.7
20260508045924 39 67 0.0 0.0 0.00 0.26 0.00 71 1007.8
20260508043926 40 67 0.0 0.0 0.00 0.26 0.00 69 1008.0
20260508043023 42 67 0.0 0.0 0.00 0.26 0.00 66 1007.9
20260508041023 43 101 0.0 1.0 0.00 0.27 0.00 65 1007.9
20260508040036 43 339 1.0 4.0 0.00 0.27 0.00 63 1008.0
20260508035038 43 333 1.0 3.0 0.00 0.27 0.27 63 1008.0
20260508034038 44 337 0.0 2.0 0.00 0.27 0.27 63 1008.2
20260508033039 44 337 0.0 3.0 0.00 0.27 0.27 62 1008.3
20260508032039 44 180 1.0 4.0 0.00 0.28 0.27 59 1008.0
20260508031039 45 337 0.0 1.0 0.00 0.28 0.27 59 1008.1
20260508030038 46 346 3.0 7.0 0.00 0.30 0.27 57 1008.1
20260508025037 46 19 2.0 5.0 0.00 0.30 0.27 56 1008.0
20260508024037 46 217 0.0 0.0 0.00 0.31 0.27 57 1007.9
20260508022037 47 360 0.0 1.0 0.00 0.35 0.27 56 1008.0
20260508021038 47 3 2.0 5.0 0.00 0.38 0.27 56 1008.0
20260508020038 47 3 2.0 4.0 0.00 0.41 0.27 57 1008.1
20260508015037 48 22 0.0 2.0 0.00 0.44 0.27 56 1008.1
20260508014037 49 3 1.0 3.0 0.00 0.47 0.27 55 1008.2
20260508012039 49 342 3.0 5.0 0.00 0.52 0.27 57 1008.1
20260508011037 49 8 3.0 5.0 0.00 0.54 0.27 57 1007.9
20260508010038 50 172 1.0 3.0 0.00 0.55 0.27 57 1007.8
20260508005038 50 18 2.0 4.0 0.00 0.57 0.27 66 1007.8
20260508002136 47 360 0.0 1.0 0.00 0.67 0.27 81 1007.2
20260508001138 48 337 0.0 0.0 0.00 0.71 0.27 79 1007.0
20260507235138 49 247 1.0 3.0 0.00 0.76 0.27 77 1006.5
20260507234138 50 225 0.0 0.0 0.00 0.77 0.27 76 1006.3
20260507233136 51 202 2.0 3.0 0.00 0.78 0.27 75 1006.3
20260507231138 51 202 1.0 4.0 0.00 0.78 0.27 74 1006.0
20260507231037 51 194 1.0 2.0 0.00 0.78 0.27 74 1006.0
20260507230036 51 202 2.0 2.0 0.00 0.78 0.27 73 1005.9
20260507225036 52 202 1.0 4.0 0.00 0.79 0.27 71 1005.7
20260507224036 53 213 1.0 3.0 0.00 0.79 0.27 70 1005.6
20260507223936 53 202 0.0 3.0 0.00 0.80 0.27 69 1005.6
20260507223035 54 202 3.0 5.0 0.00 0.80 0.27 68 1005.6
20260507221136 52 199 3.0 7.0 0.00 0.82 0.27 71 1005.7
20260507220137 52 205 3.0 8.0 0.00 0.82 0.27 73 1005.6
20260507215138 52 224 1.0 4.0 0.00 0.83 0.27 72 1005.6
20260507213235 52 191 3.0 7.0 0.00 0.83 0.27 72 1005.8
20260507212237 52 185 2.0 6.0 0.00 0.83 0.27 71 1005.8
20260507210338 53 189 4.0 10.0 0.00 0.83 0.27 70 1005.7
20260507205337 53 183 3.0 7.0 0.00 0.83 0.27 70 1005.8
20260507203337 54 195 6.0 10.0 0.00 0.83 0.27 68 1005.6
20260507202339 54 207 4.0 10.0 0.00 0.83 0.27 66 1005.5
20260507200438 54 216 4.0 16.0 0.00 0.83 0.27 68 1005.5
20260507195437 54 192 6.0 14.0 0.00 0.83 0.27 68 1005.4
20260507194438 54 191 3.0 10.0 0.00 0.83 0.27 65 1005.6
20260507193537 55 192 4.0 10.0 0.00 0.83 0.27 67 1005.5
20260507192537 55 189 5.0 10.0 0.00 0.83 0.27 68 1005.7
20260507191535 56 197 6.0 13.0 0.00 0.83 0.27 65 1005.6
20260507190539 57 219 6.0 11.0 0.00 0.83 0.27 67 1005.6
20260507185637 56 208 7.0 11.0 0.00 0.83 0.27 68 1005.7
20260507184638 56 234 5.0 13.0 0.00 0.83 0.27 69 1005.7
20260507180637 59 199 7.0 14.0 0.00 0.83 0.27 62 1005.8
20260507175639 58 209 1.0 7.0 0.00 0.83 0.27 63 1005.9
20260507174737 59 199 7.0 12.0 0.00 0.83 0.27 62 1005.9
20260507172835 59 195 3.0 8.0 0.00 0.83 0.27 60 1005.7
20260507171836 60 181 4.0 6.0 0.00 0.83 0.27 56 1005.8
20260507170936 61 199 5.0 9.0 0.00 0.83 0.27 49 1005.7
20260507164938 60 187 2.0 5.0 0.00 0.83 0.27 50 1006.0
20260507164037 60 189 4.0 8.0 0.00 0.83 0.27 48 1006.0
20260507163038 61 197 0.0 5.0 0.00 0.83 0.27 54 1006.0
20260507162135 60 90 0.0 2.0 0.00 0.83 0.27 54 1006.0
20260507160137 59 350 3.0 6.0 0.00 0.83 0.27 56 1006.4
20260507155236 59 189 4.0 7.0 0.00 0.83 0.27 57 1006.6
20260507154238 58 180 1.0 3.0 0.00 0.83 0.27 58 1006.8
20260507153335 58 337 2.0 4.0 0.00 0.83 0.27 60 1006.9
20260507152337 58 186 3.0 5.0 0.00 0.83 0.27 60 1007.0
20260507151435 58 71 1.0 3.0 0.00 0.83 0.27 61 1007.0
20260507150438 57 351 2.0 6.0 0.00 0.83 0.27 61 1006.8
20260507145536 57 8 3.0 4.0 0.00 0.83 0.27 62 1007.1
20260507144538 56 332 5.0 6.0 0.00 0.83 0.27 64 1007.2
20260507143536 55 315 1.0 2.0 0.00 0.83 0.27 67 1007.2
20260507141539 55 304 2.0 4.0 0.00 0.83 0.27 67 1007.5
20260507140538 55 327 1.0 2.0 0.00 0.83 0.27 69 1007.6
20260507135637 54 237 0.0 1.0 0.00 0.83 0.27 71 1007.6
20260507134635 53 252 1.0 5.0 0.00 0.83 0.27 73 1007.7
20260507133652 52 270 2.0 4.0 0.00 0.83 0.27 75 1008.0
20260507132738 51 262 0.0 3.0 0.00 0.83 0.27 75 1008.1
20260507131738 51 317 5.0 8.0 0.00 0.83 0.27 76 1007.8
20260507125739 50 339 1.0 2.0 0.00 0.83 0.27 80 1008.1
20260507123839 49 276 3.0 7.0 0.00 0.83 0.27 86 1007.6
20260507122936 48 67 0.0 0.0 0.00 0.83 0.27 86 1007.3
20260507121937 48 315 2.0 4.0 0.00 0.83 0.27 87 1007.2
20260507121836 48 302 1.0 4.0 0.00 0.83 0.27 87 1007.4
20260507120836 47 347 0.0 1.0 0.00 0.83 0.27 88 1007.4
20260507115837 47 315 0.0 1.0 0.00 0.83 0.27 87 1008.3
20260507114839 47 270 1.0 2.0 0.00 0.83 0.27 88 1007.7
20260507113836 46 199 1.0 4.0 0.00 0.83 0.27 89 1008.3
20260507111838 46 270 0.0 0.0 0.00 0.83 0.27 89 1008.6
20260507110937 46 32 0.0 0.0 0.00 0.83 0.27 91 1008.0
20260507104935 46 292 0.0 2.0 0.00 0.83 0.27 91 1008.1
20260507102938 46 270 1.0 3.0 0.00 0.83 0.27 91 1007.7
20260507101036 46 312 3.0 4.0 0.00 0.83 0.27 93 1007.0
20260507094136 46 304 2.0 4.0 0.00 0.83 0.27 93 1007.0
20260507093138 46 303 1.0 3.0 0.00 0.83 0.27 94 1007.2
20260507092235 47 189 0.0 1.0 0.00 0.83 0.27 94 1007.5
20260507091238 47 315 0.0 1.0 0.00 0.83 0.27 94 1007.4